Regional Weather Roundup
Issued by NWS

Home | Current Version | Previous Version | Text Only | Print | Product List | Glossary Off
Versions: 1 2 3 4 5 6 7 8 9 10 11 12 13 14 15 16 17 18 19 20 21 22 23 24 25 26 27 28 29 30 31 32 33 34 35 36 37 38 39 40 41 42 43 44 45 46 47 48 49 50

000
ASUS44 KMEG 252200
RWRTN
TENNESSEE HOURLY STATE WEATHER ROUNDUP
NATIONAL WEATHER SERVICE MEMPHIS TN
400 PM CST THU DEC 25 2014

TNZ002-004-019-021-049-052-054-088>092-252300-
WEST TENNESSEE

CITY           SKY/WX    TMP DP  RH WIND       PRES   REMARKS
MEMPHIS INTL   PTCLDY    53  31  42 S14       30.12F
NWS MEMPHIS      N/A     55 N/A N/A MISG        N/A
JACKSON        CLEAR     52  32  46 S7        30.15F
DYERSBURG      CLEAR     52  28  40 SE10      30.13F
UNION CITY     CLEAR     46  34  61 S12       30.12F
PARIS          CLEAR     48  34  57 S7        30.14F
LEXINGTON      CLEAR     50  34  53 S6        30.17S
SAVANNAH       CLEAR     50  36  57 S9        30.19F
$$

TNZ008-025-027-028-033-062-065-066-252300-
NORTH MIDDLE TENNESSEE

CITY           SKY/WX    TMP DP  RH WIND       PRES   REMARKS
NASHVILLE      PTCLDY    49  35  58 S8        30.21R
CLARKSVILLE    CLEAR     49  34  56 S10       30.17R
COOKEVILLE     CLEAR     45  36  70 SW3       30.19R
CROSSVILLE     CLEAR     44  33  65 VRB5      30.19R
$$

TNZ061-075-076-078-094-096-097-252300-
SOUTH MIDDLE TENNESSEE

CITY           SKY/WX    TMP DP  RH WIND       PRES   REMARKS
FAYETTEVILLE   CLEAR     45  34  65 MISG      30.23R
TULLAHOMA      CLEAR     45  34  65 SW8       30.22R
WINCHESTER     CLEAR     48  36  61 W7        30.23R
SHELBYVILLE    CLEAR     48  37  66 SW8       30.23R
$$

TNZ017-018-042-046-047-252300-
NORTHEAST TENNESSEE

CITY           SKY/WX    TMP DP  RH WIND       PRES   REMARKS
TRI CITIES     CLEAR     45  31  58 W6        30.18R
ELIZABETHTON   CLEAR     43  28  56 W6        30.18R
$$

TNZ012-013-036-069-073-074-252300-
CENTRAL EAST TENNESSEE

CITY           SKY/WX    TMP DP  RH WIND       PRES   REMARKS
KNOXVILLE      CLEAR     48  34  58 SW5       30.18S
OAK RIDGE      CLEAR     48  33  56 S3        30.21R
GATLINBURG     CLEAR     46  32  57 N5        30.18S
$$

TNZ083-085-099-252300-
SOUTHEAST TENNESSEE

CITY           SKY/WX    TMP DP  RH WIND       PRES   REMARKS
CHATTANOOGA    PTCLDY    50  34  54 S5        30.24R
$$

SKY/WX REPORTED AS FAIR MEANS FEW OR NO CLOUDS BELOW
12 THOUSAND FEET.



USA.gov is the U.S. government's official web portal to all federal, state and local government web resources and services.